Overview Statistics Trail Chart Weather Telemetry Raw packets
 

This is the latest recevied weather packets stored in our database for station/object N5DGC. If no packets are shown the sender has not sent any weather packets the latest 10 day(s).

<< 102 103 104 105 106 107 108 >>
Time Temp. Humidity Pressure Rain* Wind** Luminosity Snow
1787837835 20.56° C 46% 1245.8 hPa 0 mm - 34 W/m² -
1787837530 20° C 46% 1245.5 hPa 0 mm - 31 W/m² -
1787837229 19.44° C 47% 1245.5 hPa 0 mm - 41 W/m² -
1787836928 19.44° C 47% 1245 hPa 0 mm - 39 W/m² -
1787836623 18.89° C 48% 1245.2 hPa 0 mm - 34 W/m² -
1787836323 18.89° C 49% 1244.9 hPa 0 mm - 28 W/m² -
1787836019 18.89° C 50% 1245 hPa 0 mm - 20 W/m² -
1787835715 18.33° C 50% 1244.9 hPa 0 mm - 17 W/m² -
1787835409 18.89° C 50% 1245 hPa 0 mm - 14 W/m² -
1787835104 18.33° C 51% 1244.8 hPa 0 mm - 11 W/m² -
1787834803 18.33° C 51% 1244.9 hPa 0 mm - 8 W/m² -
1787834498 17.78° C 52% 1244.9 hPa 0 mm - 5 W/m² -
1787834194 17.78° C 51% 1244.9 hPa 0 mm - 3 W/m² -
1787833889 17.78° C 52% 1244.6 hPa 0 mm - 2 W/m² -
1787833584 17.78° C 51% 1244.9 hPa 0 mm - 1 W/m² -
1787833280 17.78° C 51% 1244.8 hPa 0 mm - 0 W/m² -
1787832977 17.78° C 51% 1244.6 hPa 0 mm - 0 W/m² -
1787832671 18.33° C 51% 1244.6 hPa 0 mm - 0 W/m² -
1787832370 18.33° C 51% 1244.6 hPa 0 mm - 0 W/m² -
1787832065 18.33° C 51% 1244.4 hPa 0 mm - 0 W/m² -
1787831763 17.78° C 51% 1244.3 hPa 0 mm - 0 W/m² -
1787831462 17.78° C 52% 1244.3 hPa 0 mm - 0 W/m² -
1787831161 17.78° C 52% 1244.4 hPa 0 mm - 0 W/m² -
1787830858 17.78° C 51% 1244.1 hPa 0 mm - 0 W/m² -
1787830557 18.33° C 51% 1244.3 hPa 0 mm - 0 W/m² -

* Rain latest hour (hover to see other rain measurements)
** Current wind speed in m/s (hover to see current wind gust speed)